Niagara Falls, NY

9:12 AM EDT on July 26, 2017 (GMT -0400)
Niagara Falls International

Weather History for KIAG - February, 2013

Change the Weather History Date:

Sunday, February 24, 2013

  Actual Average Record
Temperature  
Mean Temperature 30 °F -  
Max Temperature 32 °F 34 °F 66 °F (2017)
Min Temperature 28 °F 19 °F -6 °F (2015)
Degree Days  
Heating Degree Days 35    
Moisture  
Dew Point 23 °F    
Average Humidity 76    
Maximum Humidity 86    
Minimum Humidity 69    
Precipitation  
Precipitation 0.00 in - - ()
Sea Level Pressure  
Sea Level Pressure 29.94 in    
Wind  
Wind Speed 10 mph (West)    
Max Wind Speed 17 mph    
Max Gust Speed 23 mph    
Visibility 6 miles    
Events Snow    
Averages and records for this station are not official NWS values.
T = Trace of Precipitation, MM = Missing Value Source: NWS Daily Summary

Daily Weather History Graph

Daily Weather History Graph

Search for Another Location

Airport or City:

Trip Planner

Search our weather history database for the weather conditions in past years. The results will help you decide how hot, cold, wet, or windy it might be!

Date:

Astronomy

Feb. 24, 2013 Rise Set
Actual Time 6:59 AM EST 5:58 PM EST
Civil Twilight 6:30 AM EST 6:27 PM EST
Nautical Twilight 5:57 AM EST 7:00 PM EST
Astronomical Twilight 5:25 AM EST 7:33 PM EST
Moon 5:08 PM EST (2/24) 5:56 AM EST (2/24)
Length of Visible Light 11h 56m
Length of Day
10h 59m
Waxing Gibbous, 99% of the Moon is Illuminated
Feb 24
Waxing Gibbous
Feb 25
Full
Mar 4
Last Quarter
Mar 11
New
Mar 19
First Quarter

Hourly Weather History & Observations

Time (EST) Temp. Windchill Dew Point Humidity Pressure Visibility Wind Dir Wind Speed Gust Speed Precip Events Conditions
12:53 AM 30.0 °F 23.2 °F 24.1 °F 79% 29.89 in 10.0 mi SW 6.9 mph - N/A   Overcast
1:53 AM 30.0 °F 22.4 °F 23.0 °F 75% 29.88 in 10.0 mi SW 8.1 mph - N/A   Overcast
2:53 AM 28.0 °F 24.2 °F 21.9 °F 78% 29.89 in 10.0 mi West 3.5 mph - N/A   Mostly Cloudy
3:25 AM 28.4 °F 22.2 °F 23.0 °F 80% 29.85 in 10.0 mi West 5.8 mph - N/A   Overcast
3:42 AM 28.4 °F 21.2 °F 23.0 °F 80% 29.85 in 9.0 mi WSW 6.9 mph - N/A   Overcast
3:53 AM 30.0 °F 24.1 °F 23.0 °F 75% 29.89 in 10.0 mi WSW 5.8 mph - N/A   Overcast
4:53 AM 28.9 °F 21.1 °F 21.9 °F 75% 29.90 in 10.0 mi WSW 8.1 mph - N/A   Overcast
5:53 AM 28.9 °F 20.4 °F 21.9 °F 75% 29.91 in 9.0 mi WSW 9.2 mph - N/A   Overcast
6:53 AM 28.4 °F 19.1 °F 21.2 °F 74% 29.86 in 6.0 mi WSW 10.4 mph - N/A   Haze
7:06 AM 28.4 °F 19.1 °F 21.2 °F 74% 29.86 in 5.0 mi WSW 10.4 mph - 0.00 in Snow Light Snow
7:25 AM 28.4 °F 19.7 °F 23.0 °F 80% 29.87 in 3.0 mi West 9.2 mph - 0.00 in Snow Light Snow
7:41 AM 28.4 °F 19.1 °F 23.0 °F 80% 29.87 in 2.5 mi West 10.4 mph - 0.00 in Snow Light Snow
7:53 AM 28.0 °F 19.3 °F 23.0 °F 81% 29.92 in 2.5 mi West 9.2 mph - 0.00 in Snow Light Snow
7:59 AM 28.4 °F 19.1 °F 23.0 °F 80% 29.87 in 3.0 mi West 10.4 mph - 0.00 in Snow Light Snow
8:10 AM 28.4 °F 19.1 °F 23.0 °F 80% 29.87 in 4.0 mi West 10.4 mph - 0.00 in Snow Light Snow
8:22 AM 28.4 °F 19.7 °F 24.8 °F 86% 29.88 in 3.0 mi West 9.2 mph - 0.00 in Snow Light Snow
8:35 AM 28.4 °F 18.0 °F 23.0 °F 80% 29.88 in 2.5 mi West 12.7 mph - 0.00 in Snow Light Snow
8:53 AM 28.0 °F 17.0 °F 24.1 °F 85% 29.94 in 2.5 mi West 13.8 mph - 0.00 in Snow Light Snow
9:01 AM 28.4 °F 18.5 °F 23.0 °F 80% 29.89 in 3.0 mi West 11.5 mph - 0.00 in Snow Light Snow
9:14 AM 28.4 °F 18.0 °F 23.0 °F 80% 29.89 in 2.5 mi West 12.7 mph - 0.00 in Snow Light Snow
9:48 AM 28.4 °F 18.0 °F 24.8 °F 86% 29.89 in 3.0 mi West 12.7 mph - 0.00 in Snow Light Snow
9:53 AM 28.9 °F 17.7 °F 24.1 °F 82% 29.94 in 3.0 mi West 15.0 mph 21.9 mph 0.00 in Snow Light Snow
10:53 AM 30.0 °F 19.1 °F 23.0 °F 75% 29.95 in 7.0 mi West 15.0 mph - 0.00 in Snow Light Snow
10:58 AM 30.2 °F 19.3 °F 21.2 °F 69% 29.90 in 8.0 mi West 15.0 mph - 0.00 in   Mostly Cloudy
11:10 AM 30.2 °F 19.8 °F 21.2 °F 69% 29.90 in 8.0 mi West 13.8 mph - 0.00 in Snow Light Snow
11:53 AM 30.0 °F 20.0 °F 23.0 °F 75% 29.96 in 3.0 mi West 12.7 mph - 0.00 in Snow Light Snow
12:14 PM 30.2 °F 20.2 °F 24.8 °F 80% 29.91 in 2.5 mi West 12.7 mph - 0.00 in Snow Light Snow
12:30 PM 30.2 °F 19.8 °F 24.8 °F 80% 29.92 in 2.0 mi West 13.8 mph - 0.00 in Snow Light Snow
12:43 PM 30.2 °F 18.9 °F 24.8 °F 80% 29.92 in 1.8 mi West 16.1 mph - 0.00 in Snow Light Snow
12:53 PM 30.0 °F 19.5 °F 25.0 °F 82% 29.97 in 1.8 mi West 13.8 mph - 0.00 in Snow Light Snow
12:55 PM 30.2 °F 19.8 °F 24.8 °F 80% 29.92 in 2.0 mi West 13.8 mph - 0.00 in Snow Light Snow
1:12 PM 30.2 °F 20.2 °F 24.8 °F 80% 29.92 in 3.0 mi West 12.7 mph - 0.00 in Snow Light Snow
1:40 PM 30.2 °F 18.9 °F 23.0 °F 75% 29.92 in 5.0 mi WSW 16.1 mph - 0.00 in Snow Light Snow
1:53 PM 30.9 °F 19.8 °F 23.0 °F 72% 29.96 in 4.0 mi West 16.1 mph - 0.00 in Snow Light Snow
2:53 PM 30.9 °F 19.4 °F 23.0 °F 72% 29.98 in 8.0 mi West 17.3 mph 23.0 mph 0.00 in Snow Light Snow
3:27 PM 30.2 °F 18.9 °F 23.0 °F 75% 29.94 in 9.0 mi West 16.1 mph - 0.00 in   Overcast
3:46 PM 32.0 °F 20.8 °F 23.0 °F 69% 29.95 in 10.0 mi WSW 17.3 mph 23.0 mph 0.00 in   Overcast
3:53 PM 32.0 °F 20.8 °F 23.0 °F 69% 29.99 in 10.0 mi West 17.3 mph - 0.00 in   Overcast
4:53 PM 32.0 °F 20.8 °F 23.0 °F 69% 30.01 in 9.0 mi West 17.3 mph - N/A   Mostly Cloudy
5:09 PM 32.0 °F 21.2 °F 23.0 °F 69% 29.98 in 8.0 mi West 16.1 mph 21.9 mph 0.00 in Snow Light Snow
5:53 PM 32.0 °F 22.1 °F 24.1 °F 73% 30.04 in 7.0 mi West 13.8 mph - 0.00 in Snow Light Snow
6:53 PM 32.0 °F 21.6 °F 23.0 °F 69% 30.07 in 8.0 mi West 15.0 mph - 0.00 in Snow Light Snow
7:41 PM 32.0 °F 21.6 °F 23.0 °F 69% 30.04 in 8.0 mi West 15.0 mph - 0.00 in Snow Light Snow
7:53 PM 30.9 °F 19.4 °F 23.0 °F 72% 30.09 in 7.0 mi West 17.3 mph - 0.00 in Snow Light Snow
8:53 PM 30.9 °F 21.2 °F 21.9 °F 69% 30.11 in 9.0 mi West 12.7 mph - 0.00 in Snow Light Snow
9:53 PM 30.0 °F 21.1 °F 21.9 °F 72% 30.12 in 9.0 mi West 10.4 mph - 0.00 in Snow Light Snow
10:42 PM 30.2 °F 20.2 °F 21.2 °F 69% 30.07 in 9.0 mi West 12.7 mph - 0.00 in   Overcast
10:53 PM 30.0 °F 20.5 °F 21.9 °F 72% 30.12 in 10.0 mi West 11.5 mph - 0.00 in   Overcast
11:53 PM 30.0 °F 22.4 °F 21.9 °F 72% 30.12 in 10.0 mi West 8.1 mph - N/A   Overcast